• In Spain
  • List of Countries
  • For 7 days
  • Water Temperature
  • Satellite Maps
  • Weather Map
  • Weather Widgets
  • user-avatar
    Login

    Hourly Weather Igls

    Today, 15 November, Thursday

    Time Temperature Precipitation Wind Pressure Humidity
    00:00 +7°C° 0 mm 1 mps 690 mmHg 61%
    01:00 +7°C° 0 mm 1 mps 690 mmHg 57%
    02:00 +7°C° 0 mm 1 mps 690 mmHg 56%
    03:00 +6°C° 0 mm 1 mps 690 mmHg 55%
    04:00 +6°C° 0 mm 1 mps 690 mmHg 53%
    05:00 +6°C° 0 mm 1 mps 690 mmHg 53%
    06:00 +6°C° 0 mm 1 mps 689 mmHg 52%
    07:00 +6°C° 0 mm 1 mps 689 mmHg 51%
    08:00 +8°C° 0 mm 1 mps 689 mmHg 48%
    09:00 +11°C° 0 mm 1 mps 690 mmHg 46%
    10:00 +12°C° 0 mm 0 mps 690 mmHg 43%
    11:00 +14°C° 0 mm 1 mps 690 mmHg 41%
    12:00 +14°C° 0 mm 1 mps 690 mmHg 40%
    13:00 +15°C° 0 mm 1 mps 689 mmHg 38%
    14:00 +14°C° 0 mm 1 mps 689 mmHg 47%
    15:00 +12°C° 0 mm 1 mps 689 mmHg 55%
    16:00 +10°C° 0 mm 0 mps 688 mmHg 64%
    17:00 +8°C° 0 mm 0 mps 688 mmHg 66%
    18:00 +7°C° 0 mm 0 mps 688 mmHg 68%
    19:00 +6°C° 0 mm 0 mps 688 mmHg 70%
    20:00 +7°C° 0 mm 1 mps 688 mmHg 68%
    21:00 +7°C° 0 mm 1 mps 688 mmHg 66%
    22:00 +7°C° 0 mm 1 mps 688 mmHg 65%
    23:00 +7°C° 0 mm 1 mps 688 mmHg 63%

    Tomorrow, 16 November, Friday

    Time Temperature Precipitation Wind Pressure Humidity
    00:00 +7°C° 0 mm 1 mps 688 mmHg 61%
    01:00 +7°C° 0 mm 1 mps 689 mmHg 58%
    02:00 +6°C° 0 mm 1 mps 689 mmHg 57%
    03:00 +6°C° 0 mm 1 mps 689 mmHg 55%
    04:00 +6°C° 0 mm 1 mps 689 mmHg 53%
    05:00 +6°C° 0 mm 1 mps 689 mmHg 52%
    06:00 +5°C° 0 mm 1 mps 689 mmHg 51%
    07:00 +5°C° 0 mm 1 mps 689 mmHg 50%
    08:00 +7°C° 0 mm 1 mps 689 mmHg 48%
    09:00 +9°C° 0 mm 1 mps 690 mmHg 46%
    10:00 +10°C° 0 mm 1 mps 690 mmHg 44%
    11:00 +11°C° 0 mm 1 mps 690 mmHg 43%
    12:00 +11°C° 0 mm 1 mps 690 mmHg 42%
    13:00 +12°C° 0 mm 1 mps 689 mmHg 42%
    14:00 +10°C° 0 mm 1 mps 689 mmHg 51%
    15:00 +9°C° 0 mm 1 mps 689 mmHg 59%
    16:00 +8°C° 0 mm 1 mps 688 mmHg 68%
    17:00 +7°C° 0 mm 1 mps 689 mmHg 74%
    18:00 +5°C° 0 mm 1 mps 689 mmHg 79%
    19:00 +4°C° 0 mm 1 mps 689 mmHg 85%
    20:00 +4°C° 0 mm 1 mps 689 mmHg 86%
    21:00 +3°C° 0 mm 2 mps 689 mmHg 86%
    22:00 +3°C° 0 mm 2 mps 690 mmHg 86%
    23:00 +3°C° 0 mm 2 mps 689 mmHg 87%

    Day after tomorrow, 17 November, Saturday

    Time Temperature Precipitation Wind Pressure Humidity
    00:00 +3°C° 0 mm 2 mps 689 mmHg 87%
    01:00 +3°C° 0 mm 2 mps 689 mmHg 88%
    02:00 +2°C° 0 mm 2 mps 689 mmHg 87%
    03:00 +2°C° 0 mm 2 mps 689 mmHg 86%
    04:00 +2°C° 0 mm 2 mps 689 mmHg 86%
    05:00 +2°C° 0 mm 2 mps 689 mmHg 84%
    06:00 +2°C° 0 mm 2 mps 689 mmHg 83%
    07:00 +2°C° 0 mm 2 mps 689 mmHg 82%
    08:00 +3°C° 0 mm 2 mps 689 mmHg 73%
    09:00 +5°C° 0 mm 2 mps 689 mmHg 64%
    10:00 +6°C° 0 mm 2 mps 689 mmHg 55%
    11:00 +7°C° 0 mm 2 mps 689 mmHg 50%
    12:00 +8°C° 0 mm 2 mps 689 mmHg 45%
    13:00 +9°C° 0 mm 2 mps 689 mmHg 40%
    14:00 +8°C° 0 mm 2 mps 688 mmHg 45%
    15:00 +7°C° 0 mm 2 mps 688 mmHg 49%
    16:00 +6°C° 0 mm 2 mps 688 mmHg 54%
    17:00 +5°C° 0 mm 2 mps 688 mmHg 57%
    18:00 +3°C° 0 mm 2 mps 688 mmHg 60%
    19:00 +2°C° 0 mm 2 mps 688 mmHg 63%
    20:00 +2°C° 0 mm 2 mps 688 mmHg 62%
    21:00 +2°C° 0 mm 2 mps 688 mmHg 61%
    22:00 +2°C° 0 mm 2 mps 688 mmHg 60%
    23:00 +1°C° 0 mm 2 mps 688 mmHg 59%

    18 November, Sunday

    Time Temperature Precipitation Wind Pressure Humidity
    00:00 +2°C° 0 mm 1 mps 688 mmHg 58%
    01:00 +2°C° 0 mm 1 mps 687 mmHg 57%
    02:00 +2°C° 0 mm 1 mps 687 mmHg 56%
    03:00 +2°C° 0 mm 1 mps 687 mmHg 55%
    04:00 +1°C° 0 mm 1 mps 687 mmHg 54%
    05:00 +1°C° 0 mm 1 mps 687 mmHg 54%
    06:00 -1°C° 0 mm 2 mps 687 mmHg 54%
    07:00 -1°C° 0 mm 2 mps 687 mmHg 53%
    08:00 +1°C° 0 mm 2 mps 687 mmHg 49%
    09:00 +3°C° 0 mm 2 mps 687 mmHg 44%
    10:00 +5°C° 0 mm 2 mps 687 mmHg 39%
    11:00 +6°C° 0 mm 2 mps 687 mmHg 37%
    12:00 +7°C° 0 mm 2 mps 686 mmHg 35%
    13:00 +8°C° 0 mm 2 mps 686 mmHg 32%
    14:00 +7°C° 0 mm 1 mps 686 mmHg 38%
    15:00 +6°C° 0 mm 1 mps 685 mmHg 43%
    16:00 +5°C° 0 mm 1 mps 684 mmHg 49%
    17:00 +4°C° 0 mm 1 mps 684 mmHg 52%
    18:00 +2°C° 0 mm 0 mps 684 mmHg 56%
    19:00 +1°C° 0 mm 0 mps 683 mmHg 59%
    20:00 +1°C° 0 mm 0 mps 683 mmHg 61%
    21:00 +1°C° 0 mm 1 mps 683 mmHg 62%
    22:00 +1°C° 0 mm 1 mps 683 mmHg 63%
    23:00 +1°C° 0 mm 1 mps 683 mmHg 64%

    19 November, Monday

    Time Temperature Precipitation Wind Pressure Humidity
    00:00 +1°C° 0 mm 1 mps 682 mmHg 65%
    01:00 +1°C° 0 mm 1 mps 682 mmHg 66%
    02:00 +1°C° 0 mm 1 mps 681 mmHg 69%
    03:00 0°C° 0 mm 1 mps 681 mmHg 73%
    04:00 0°C° 0 mm 1 mps 681 mmHg 76%
    05:00 0°C° 0 mm 1 mps 680 mmHg 79%
    06:00 0°C° 0 mm 1 mps 680 mmHg 81%
    07:00 -1°C° 0 mm 1 mps 680 mmHg 84%
    08:00 0°C° 0.1 mm 1 mps 680 mmHg 80%
    09:00 +1°C° 0.1 mm 1 mps 680 mmHg 76%
    10:00 +2°C° 0.1 mm 1 mps 680 mmHg 72%
    11:00 +2°C° 0.1 mm 1 mps 680 mmHg 70%
    12:00 +2°C° 0.1 mm 1 mps 679 mmHg 69%
    13:00 +3°C° 0.1 mm 1 mps 679 mmHg 67%
    14:00 +2°C° 0.2 mm 1 mps 678 mmHg 71%
    15:00 +2°C° 0.2 mm 1 mps 678 mmHg 75%
    16:00 +1°C° 0.2 mm 1 mps 678 mmHg 79%
    17:00 +1°C° 0.2 mm 1 mps 678 mmHg 82%
    18:00 0°C° 0.2 mm 1 mps 678 mmHg 85%
    19:00 0°C° 0.2 mm 1 mps 678 mmHg 88%
    20:00 0°C° 0.1 mm 1 mps 677 mmHg 88%
    21:00 0°C° 0.1 mm 1 mps 677 mmHg 89%
    22:00 -1°C° 0.1 mm 1 mps 677 mmHg 89%
    23:00 -1°C° 0.1 mm 1 mps 677 mmHg 89%

    20 November, Tuesday

    Time Temperature Precipitation Wind Pressure Humidity
    00:00 -1°C° 0.1 mm 1 mps 677 mmHg 89%
    01:00 -1°C° 0.1 mm 1 mps 676 mmHg 89%
    02:00 -1°C° 0 mm 1 mps 676 mmHg 89%
    03:00 -2°C° 0 mm 1 mps 676 mmHg 89%
    04:00 -2°C° 0 mm 1 mps 675 mmHg 89%
    05:00 -2°C° 0 mm 1 mps 675 mmHg 88%
    06:00 -2°C° 0 mm 1 mps 674 mmHg 88%
    07:00 -3°C° 0 mm 1 mps 674 mmHg 87%
    08:00 -2°C° 0 mm 1 mps 674 mmHg 81%
    09:00 0°C° 0 mm 1 mps 674 mmHg 74%
    10:00 +1°C° 0 mm 1 mps 674 mmHg 68%
    11:00 +1°C° 0 mm 1 mps 673 mmHg 65%
    12:00 +1°C° 0 mm 2 mps 673 mmHg 62%
    13:00 +2°C° 0 mm 2 mps 672 mmHg 60%
    14:00 +2°C° 0.1 mm 1 mps 672 mmHg 66%
    15:00 +2°C° 0.1 mm 1 mps 671 mmHg 72%
    16:00 +1°C° 0.1 mm 1 mps 671 mmHg 78%
    17:00 0°C° 0.1 mm 1 mps 671 mmHg 81%
    18:00 0°C° 0.1 mm 1 mps 670 mmHg 85%
    19:00 -1°C° 0.1 mm 1 mps 670 mmHg 89%
    20:00 -1°C° 0.1 mm 1 mps 670 mmHg 89%
    21:00 -1°C° 0.1 mm 1 mps 670 mmHg 89%
    22:00 -1°C° 0.1 mm 1 mps 669 mmHg 89%
    23:00 -1°C° 0.3 mm 1 mps 669 mmHg 90%
    Show more